Falls City, NE

4:38 AM CST on February 26, 2017 (GMT -0600)
Brenner

Weather History for KFNB - June, 2013

Change the Weather History Date:

Thursday, June 20, 2013

  Actual Average Record
Temperature  
Mean Temperature 79 °F -  
Max Temperature 91 °F 87 °F 103 °F (1988)
Min Temperature 68 °F 63 °F 51 °F (1961)
Cooling Degree Days 14    
Growing Degree Days 29 (Base 50)    
Moisture  
Dew Point 69 °F    
Average Humidity 70    
Maximum Humidity 90    
Minimum Humidity 54    
Precipitation  
Precipitation 0.00 in - - ()
Sea Level Pressure  
Sea Level Pressure 29.89 in    
Wind  
Wind Speed 11 mph (SSE)    
Max Wind Speed 24 mph    
Max Gust Speed 34 mph    
Visibility 10 miles    
Events      
Averages and records for this station are not official NWS values.
T = Trace of Precipitation, MM = Missing Value Source: NWS Daily Summary

Daily Weather History Graph

Daily Weather History Graph

Search for Another Location

Airport or City:

Trip Planner

Search our weather history database for the weather conditions in past years. The results will help you decide how hot, cold, wet, or windy it might be!

Date:

Astronomy

Jun. 20, 2013 Rise Set
Actual Time 5:53 AM CDT 8:54 PM CDT
Civil Twilight 5:20 AM CDT 9:27 PM CDT
Nautical Twilight 4:38 AM CDT 10:09 PM CDT
Astronomical Twilight 3:49 AM CDT 10:58 PM CDT
Moon 5:58 PM CDT (6/20) 3:20 AM CDT (6/20)
Length of Visible Light 16h 07m
Length of Day
15h 01m
Waxing Gibbous, 89% of the Moon is Illuminated
Jun 20
Waxing Gibbous
Jun 23
Full
Jun 29
Last Quarter
Jul 8
New
Jul 15
First Quarter

Hourly Weather History & Observations

Time (CDT) Temp. Heat Index Dew Point Humidity Pressure Visibility Wind Dir Wind Speed Gust Speed Precip Events Conditions
12:53 AM 70.0 °F - 64.9 °F 84% 29.95 in 10.0 mi SE 4.6 mph - N/A   Clear
1:53 AM 69.1 °F - 64.9 °F 87% 29.95 in 10.0 mi SE 4.6 mph - N/A   Clear
2:53 AM 68.0 °F - 64.9 °F 90% 29.93 in 10.0 mi SE 4.6 mph - N/A   Clear
3:53 AM 69.1 °F - 64.9 °F 87% 29.93 in 10.0 mi SE 4.6 mph - N/A   Clear
4:53 AM 69.1 °F - 66.0 °F 90% 29.92 in 10.0 mi SSE 6.9 mph - N/A   Clear
5:53 AM 70.0 °F - 66.0 °F 87% 29.93 in 10.0 mi SSE 8.1 mph - N/A   Scattered Clouds
6:53 AM 71.1 °F - 66.9 °F 87% 29.94 in 10.0 mi SSE 6.9 mph - N/A   Partly Cloudy
7:53 AM 73.9 °F - 66.9 °F 79% 29.95 in 10.0 mi SSE 11.5 mph - N/A   Scattered Clouds
8:53 AM 78.1 °F - 68.0 °F 71% 29.92 in 10.0 mi SSE 17.3 mph - N/A   Partly Cloudy
9:53 AM 80.1 °F 82.7 °F 68.0 °F 67% 29.92 in 10.0 mi SSE 20.7 mph 25.3 mph N/A   Mostly Cloudy
10:53 AM 82.9 °F 87.0 °F 70.0 °F 65% 29.91 in 10.0 mi SSE 16.1 mph 29.9 mph N/A   Clear
11:53 AM 84.9 °F 89.4 °F 70.0 °F 61% 29.90 in 10.0 mi South 20.7 mph 29.9 mph N/A   Clear
12:53 PM 87.1 °F 92.0 °F 70.0 °F 57% 29.89 in 10.0 mi South 20.7 mph 28.8 mph N/A   Clear
1:53 PM 88.0 °F 93.8 °F 71.1 °F 57% 29.88 in 10.0 mi South 17.3 mph 27.6 mph N/A   Partly Cloudy
2:53 PM 89.1 °F 96.0 °F 72.0 °F 57% 29.85 in 10.0 mi SSE 24.2 mph 33.4 mph N/A   Scattered Clouds
3:53 PM 90.0 °F 96.4 °F 71.1 °F 54% 29.83 in 10.0 mi SSE 20.7 mph 29.9 mph N/A   Scattered Clouds
4:53 PM 90.0 °F 96.4 °F 71.1 °F 54% 29.82 in 10.0 mi South 19.6 mph 34.5 mph N/A   Clear
5:53 PM 90.0 °F 96.4 °F 71.1 °F 54% 29.81 in 10.0 mi South 24.2 mph 29.9 mph N/A   Clear
6:53 PM 89.1 °F 95.0 °F 71.1 °F 55% 29.81 in 10.0 mi South 18.4 mph 27.6 mph N/A   Clear
7:53 PM 87.1 °F 92.8 °F 71.1 °F 59% 29.83 in 10.0 mi SSE 19.6 mph 27.6 mph N/A   Clear
8:53 PM 84.0 °F 89.6 °F 72.0 °F 67% 29.84 in 10.0 mi SSE 13.8 mph - N/A   Clear
9:53 PM 82.9 °F 88.0 °F 72.0 °F 69% 29.85 in 10.0 mi SSE 13.8 mph - N/A   Clear
10:53 PM 81.0 °F 85.2 °F 72.0 °F 74% 29.88 in 10.0 mi SSE 10.4 mph - N/A   Clear
11:53 PM 81.0 °F 85.2 °F 72.0 °F 74% 29.89 in 10.0 mi SSE 15.0 mph - N/A   Clear